TimeEDT,TemperatureF,Dew PointF,Humidity,Sea Level PressureIn,VisibilityMPH,Wind Direction,Wind SpeedMPH,Gust SpeedMPH,PrecipitationIn,Events,Conditions,WindDirDegrees,DateUTC
12:53 AM,55.9,51.1,84,30.08,10.0,Calm,Calm,-,N/A,,Clear,0,2012-10-24 04:53:00
1:53 AM,55.9,51.1,84,30.08,10.0,Calm,Calm,-,N/A,,Clear,0,2012-10-24 05:53:00
2:53 AM,55.9,51.1,84,30.09,10.0,Calm,Calm,-,N/A,,Clear,0,2012-10-24 06:53:00
3:53 AM,55.9,52.0,87,30.09,10.0,Calm,Calm,-,N/A,,Clear,0,2012-10-24 07:53:00
4:53 AM,55.0,51.1,86,30.10,10.0,Calm,Calm,-,N/A,,Mostly Cloudy,0,2012-10-24 08:53:00
5:53 AM,55.0,52.0,89,30.12,10.0,Calm,Calm,-,0.00,Rain,Light Rain,0,2012-10-24 09:53:00
6:53 AM,55.9,52.0,87,30.13,10.0,Calm,Calm,-,0.00,,Overcast,0,2012-10-24 10:53:00
7:53 AM,55.0,52.0,89,30.15,10.0,Calm,Calm,-,N/A,,Overcast,0,2012-10-24 11:53:00
8:53 AM,60.1,53.1,78,30.17,10.0,Calm,Calm,-,N/A,,Overcast,0,2012-10-24 12:53:00
9:53 AM,63.0,54.0,72,30.17,10.0,South,3.5,-,N/A,,Overcast,180,2012-10-24 13:53:00
10:53 AM,66.0,54.0,65,30.16,10.0,SSW,5.8,-,N/A,,Overcast,210,2012-10-24 14:53:00
12:53 PM,71.1,53.1,53,30.13,10.0,SW,8.1,-,N/A,,Clear,230,2012-10-24 16:53:00
1:53 PM,73.9,52.0,46,30.10,10.0,West,5.8,-,N/A,,Clear,260,2012-10-24 17:53:00
2:53 PM,75.0,52.0,44,30.08,10.0,Variable,6.9,-,N/A,,Clear,0,2012-10-24 18:53:00
3:53 PM,75.0,48.9,40,30.07,10.0,WSW,6.9,-,N/A,,Clear,250,2012-10-24 19:53:00
5:53 PM,73.0,48.9,42,30.07,10.0,WSW,5.8,-,N/A,,Clear,250,2012-10-24 21:53:00
6:53 PM,71.1,46.9,42,30.08,10.0,Calm,Calm,-,N/A,,Clear,0,2012-10-24 22:53:00
7:53 PM,66.9,48.0,51,30.09,10.0,South,4.6,-,N/A,,Clear,170,2012-10-24 23:53:00
9:53 PM,60.1,50.0,69,30.09,10.0,Calm,Calm,-,N/A,,Clear,0,2012-10-25 01:53:00
10:53 PM,57.9,48.9,72,30.10,10.0,Calm,Calm,-,N/A,,Clear,0,2012-10-25 02:53:00
11:53 PM,55.0,48.9,80,30.10,10.0,Calm,Calm,-,N/A,,Clear,0,2012-10-25 03:53:00